Wind_Speed
16 18 23 24 17 12 12 9 5 5 8 16 17 24 10 16 18 25 26 24 24 18 15 14 15 22 15 10 10 8 2 7 5 9 10 12 12 14 14 14 14 16 13 13
17 22 28 19 14 9 10 6 5 8 16 17 18 17 17 19 19 21 17 21 23 14 17 14 16 18 21 14 11 6 6 3 3 5 7 10 12 13 15 16 17 18 16 16
18 28 25 16 8 2 2 4 8 7 12 12 16 18 20 20 22 23 15 15 14 16 21 17 16 15 12 10 9 9 8 8 2 3 5 9 11 15 17 17 20 19 18 18
32 32 24 14 9 6 6 9 6 5 9 14 16 19 25 23 17 4 9 9 11 14 21 17 16 19 16 14 11 9 7 5 7 5 8 9 10 11 10 18 24 18 22 24
32 33 19 11 9 7 14 12 9 14 18 21 25 23 13 16 15 4 6 3 7 9 16 14 14 14 15 17 14 12 11 7 7 6 8 11 15 10 15 18 19 21 27 28
35 37 27 12 6 19 18 21 20 6 8 15 21 15 16 19 16 11 4 3 4 13 13 14 15 13 12 13 13 13 12 11 10 9 11 13 14 15 17 20 25 30 32 27
34 32 25 19 16 12 15 21 12 7 7 8 21 22 19 19 15 14 7 1 7 10 9 14 15 16 13 13 13 17 16 15 12 13 15 17 19 22 22 23 25 29 30 31
24 14 11 7 7 10 6 20 14 8 12 24 25 14 9 17 26 12 4 3 6 6 8 14 18 19 17 15 14 19 21 16 15 17 20 19 22 25 27 28 29 22 20 25
22 16 7 7 5 9 7 21 7 8 24 21 12 10 11 14 5 10 1 4 4 5 7 10 14 17 18 17 16 22 24 21 22 22 21 21 22 24 27 30 29 13 10 15
22 11 4 3 5 1 3 14 13 11 24 22 20 18 22 7 9 7 5 6 8 7 8 11 12 17 20 20 19 21 23 20 21 20 19 17 19 21 21 23 23 11 8 10
18 13 12 8 5 3 6 11 4 18 18 23 23 26 24 13 12 15 1 1 4 4 7 10 12 15 17 21 18 18 21 22 21 19 19 19 19 20 20 18 21 14 8 9
21 18 15 12 10 12 10 13 19 16 23 11 25 22 27 12 5 8 4 12 7 11 10 12 15 8 17 20 21 19 20 23 22 20 19 20 20 21 21 20 16 16 6 4
25 23 21 20 20 18 16 24 19 18 22 17 14 9 4 6 6 5 10 11 12 16 14 13 15 15 16 19 22 22 21 22 22 20 20 20 22 22 21 21 18 16 13 10
16 24 26 22 24 21 26 23 16 8 19 17 10 15 19 15 17 24 23 19 20 18 17 15 19 15 17 18 22 23 22 24 26 20 19 17 18 19 21 21 19 16 14 14
18 20 30 30 23 20 15 29 18 17 27 25 16 16 21 24 26 22 18 22 24 23 20 17 21 16 17 20 21 23 23 25 27 22 20 17 15 17 17 20 19 18 15 14
20 21 20 26 29 24 22 25 25 24 32 29 31 23 18 20 17 22 26 27 28 30 30 26 21 17 19 19 20 21 23 27 28 23 22 19 18 18 18 17 20 19 17 13
23 21 16 27 34 33 33 30 22 18 32 35 33 29 17 20 19 24 26 27 27 32 27 23 16 17 18 18 20 21 22 26 29 28 27 24 22 20 20 20 20 21 21 19
25 25 24 25 32 37 36 31 26 22 27 41 41 34 18 19 20 25 27 25 23 26 28 11 30 18 18 16 19 21 19 21 23 24 27 28 27 26 26 24 23 22 22 22
28 27 28 26 33 34 30 28 26 22 21 31 38 25 26 23 22 25 26 27 29 26 24 11 21 23 24 20 21 21 22 22 21 23 24 27 30 30 28 28 26 25 24 23
27 30 28 27 30 32 34 31 28 23 25 29 35 35 29 24 23 24 25 24 24 24 23 26 31 22 23 26 27 25 25 24 26 27 30 30 30 30 32 32 29 28 28 26
36 33 38 39 40 32 30 27 25 27 19 11 11 14 25 23 26 30 30 27 25 23 23 21 17 19 19 33 33 30 31 33 33 36 37 39 35 30 30 31 32 32 31 31
40 43 38 41 32 35 31 22 20 16 16 12 12 17 20 26 30 31 33 30 29 28 26 27 22 28 34 32 35 35 34 36 38 40 41 39 38 36 34 32 32 32 32 33
28 35 27 23 28 20 24 25 27 18 17 17 17 22 29 33 35 35 34 31 31 30 28 28 29 32 34 34 35 36 39 42 43 42 40 38 36 37 37 35 33 34 34 34
33 33 30 29 40 37 37 34 20 19 19 26 29 31 33 33 34 33 31 31 31 32 32 32 34 33 32 34 36 39 42 43 42 40 37 35 35 36 37 39 39 39 40 41
20 23 17 12 9 10 14 19 19 24 26 31 32 33 33 33 33 33 34 35 35 34 35 38 36 37 38 40 42 44 44 43 42 40 38 36 34 32 32 34 35 36 37 38
22 16 21 23 17 14 14 20 25 26 27 32 32 32 33 32 32 32 32 33 33 35 38 39 39 41 43 45 45 43 42 41 39 36 34 33 32 31 30 30 31 32 33 35
Wind_Direction
193 184 163 159 146 133 120 107 96 25 316 315 305 315 326 316 337 338 337 334 338 348 9 1 355 358 16 67 123 55 336 301 296 284 284 277 267 261 253 253 250 259 252 243
195 166 165 163 158 147 134 109 109 214 309 298 302 334 336 335 324 327 330 336 330 3 36 24 15 9 25 24 39 43 97 31 327 295 282 267 265 264 263 256 253 246 246 241
177 164 162 138 131 73 23 97 121 329 271 276 292 305 325 317 332 319 336 356 348 359 41 32 31 36 26 18 18 6 45 41 64 359 318 301 282 271 265 265 255 250 249 246
171 173 156 144 152 139 142 167 184 262 260 287 291 302 308 332 329 5 335 341 2 358 49 36 39 43 32 19 10 2 8 6 328 2 311 311 311 314 295 278 274 262 247 240
175 173 154 169 207 197 180 199 231 227 234 258 266 285 284 294 298 296 323 50 32 6 34 36 35 38 24 22 11 10 360 360 346 327 317 314 324 313 298 294 282 265 257 237
180 185 189 175 231 240 183 207 225 244 233 241 257 257 272 265 284 269 258 147 69 32 15 12 13 22 9 14 10 2 351 340 345 353 346 327 323 316 310 313 296 281 276 268
189 194 193 187 216 230 212 223 211 203 236 267 293 260 274 294 288 261 249 153 59 29 7 7 11 17 12 356 356 353 348 344 339 347 341 333 324 317 316 323 309 284 278 263
193 107 95 67 31 348 278 171 191 214 294 283 286 302 323 294 305 229 239 13 50 44 20 7 5 13 3 355 346 348 345 332 327 327 327 328 324 323 323 328 324 291 272 258
152 132 149 230 273 326 234 191 179 266 283 280 307 317 316 344 169 187 121 29 8 18 19 5 1 359 359 353 344 348 353 348 341 341 336 329 323 324 328 332 334 308 283 251
161 136 89 105 235 87 292 194 230 252 271 289 317 313 320 298 277 207 139 167 85 6 358 340 350 355 352 352 342 344 351 347 342 346 345 335 328 325 328 336 344 322 281 254
181 160 145 157 215 249 191 163 255 247 280 306 308 313 317 312 261 216 134 221 198 24 337 339 339 332 351 344 341 334 342 340 338 339 344 344 339 332 337 347 355 352 294 288
187 181 174 188 223 229 210 236 246 239 246 280 287 292 304 266 130 165 284 4 28 22 343 329 337 3 344 334 338 331 336 342 332 334 339 342 342 341 339 344 349 1 348 313
198 198 200 205 209 215 236 253 258 251 259 268 296 298 295 281 99 19 322 327 327 339 337 330 312 314 321 327 333 330 327 329 334 324 332 339 339 337 336 333 340 343 354 353
218 228 218 227 230 217 231 229 246 281 267 269 295 298 298 305 293 311 313 335 346 341 330 320 300 308 316 317 321 328 324 322 327 319 320 331 332 333 331 334 329 327 327 322
251 262 231 240 240 241 264 207 234 256 266 277 298 304 298 294 300 304 333 343 332 324 310 295 285 299 309 309 315 320 318 320 322 315 309 319 321 326 331 325 324 324 311 303
251 259 254 240 236 247 255 248 245 246 254 261 266 272 290 297 317 326 324 320 316 306 295 279 278 293 294 305 311 315 317 316 323 316 301 308 311 310 316 323 320 316 311 298
250 252 257 240 239 242 247 249 252 254 249 256 261 273 256 283 292 297 309 316 306 297 255 263 265 277 291 302 307 314 315 318 319 314 307 304 303 305 309 311 315 313 307 298
254 264 273 249 240 246 253 261 253 273 251 258 261 271 270 282 282 293 305 312 309 306 306 284 333 296 303 305 305 300 295 295 303 305 300 302 303 302 303 304 306 305 303 299
247 258 267 265 247 251 257 262 262 264 264 247 255 265 266 278 287 296 306 311 319 323 317 296 320 308 301 291 285 279 279 283 292 297 293 289 286 288 288 288 289 295 293 293
242 239 248 256 246 247 259 262 269 280 274 269 254 263 262 275 289 296 297 305 306 308 298 307 300 296 286 302 293 289 290 296 302 298 298 296 286 281 280 279 281 282 287 285
252 247 252 254 254 264 256 266 271 281 268 262 200 254 266 284 293 298 301 305 307 304 306 313 301 283 268 298 306 305 303 305 304 303 303 301 295 286 283 282 280 278 279 280
253 246 254 262 257 245 239 270 266 289 270 283 233 258 291 283 286 290 299 303 306 306 307 306 304 275 294 295 298 300 302 301 301 300 300 296 290 286 286 285 281 279 276 276
257 244 263 257 237 233 253 259 259 258 277 282 286 286 286 286 288 288 289 294 297 302 303 303 296 291 293 296 297 298 297 297 297 298 296 294 290 284 280 278 278 278 278 278
263 279 275 272 259 258 247 249 289 292 287 282 280 278 277 276 280 283 288 294 299 299 301 296 292 293 293 290 292 294 297 300 299 298 296 293 288 285 283 281 277 277 279 278
281 267 282 278 311 261 248 255 278 285 283 276 277 280 280 283 284 289 291 294 296 297 292 289 298 300 302 303 304 304 304 303 303 302 300 297 293 288 285 282 279 277 277 277
266 269 287 294 294 303 293 279 267 268 271 271 275 278 282 287 291 290 289 292 293 291 292 301 301 302 303 302 301 301 302 302 302 302 302 299 296 293 290 287 285 286 283 283
Height
5922 5925 5929 5931 5932 5933 5935 5937 5941 5941 5941 5943 5943 5941 5940 5937 5936 5934 5932 5929 5927 5926 5918 5913 5906 5904 5905 5908 5907 5904 5906 5905 5902 5906 5906 5906 5905 5905 5906 5907 5909 5909 5910 5911
5922 5924 5927 5930 5932 5933 5933 5938 5941 5941 5941 5942 5942 5941 5942 5938 5936 5933 5931 5930 5924 5925 5918 5914 5912 5909 5905 5908 5908 5908 5908 5906 5905 5905 5904 5903 5901 5901 5901 5902 5903 5903 5905 5907
5922 5924 5926 5928 5929 5930 5932 5938 5941 5942 5938 5940 5940 5940 5941 5939 5935 5933 5930 5930 5926 5921 5916 5917 5917 5915 5909 5909 5908 5908 5907 5905 5905 5902 5903 5901 5899 5899 5898 5897 5898 5898 5899 5898
5918 5921 5924 5926 5927 5929 5933 5937 5938 5940 5940 5938 5938 5939 5939 5936 5936 5933 5933 5931 5927 5923 5917 5919 5918 5913 5912 5910 5908 5906 5904 5904 5903 5901 5903 5899 5896 5895 5894 5893 5892 5892 5892 5891
5916 5919 5921 5923 5926 5927 5933 5935 5936 5937 5938 5938 5938 5939 5939 5937 5934 5933 5933 5931 5928 5927 5917 5920 5920 5916 5914 5912 5911 5909 5905 5903 5903 5900 5901 5897 5890 5891 5891 5890 5888 5886 5882 5882
5911 5914 5915 5919 5924 5927 5932 5931 5932 5934 5934 5935 5934 5935 5935 5934 5934 5933 5933 5930 5927 5920 5920 5920 5920 5917 5915 5914 5911 5909 5907 5904 5901 5900 5897 5895 5892 5890 5888 5885 5881 5877 5874 5871
5909 5912 5914 5917 5921 5925 5927 5929 5932 5933 5932 5933 5932 5931 5931 5932 5932 5932 5930 5927 5922 5920 5921 5918 5918 5915 5914 5911 5909 5907 5905 5902 5900 5899 5897 5893 5889 5886 5884 5880 5873 5865 5863 5862
5911 5917 5918 5922 5924 5925 5925 5926 5928 5929 5929 5927 5927 5927 5929 5926 5924 5928 5925 5924 5921 5920 5920 5918 5915 5913 5912 5911 5909 5907 5904 5902 5900 5897 5893 5890 5885 5880 5876 5872 5865 5855 5852 5854
5910 5911 5914 5917 5919 5922 5922 5924 5927 5927 5923 5922 5922 5922 5922 5923 5915 5921 5921 5921 5920 5919 5919 5917 5914 5911 5909 5908 5906 5904 5901 5897 5894 5892 5889 5886 5882 5877 5871 5866 5859 5853 5850 5852
5908 5910 5912 5914 5916 5920 5920 5924 5924 5924 5920 5918 5918 5917 5918 5918 5917 5917 5918 5919 5919 5917 5916 5915 5913 5911 5909 5905 5903 5902 5899 5897 5894 5890 5887 5884 5879 5875 5870 5864 5856 5852 5849 5849
5904 5908 5911 5913 5915 5917 5918 5920 5919 5919 5918 5914 5913 5914 5913 5914 5912 5915 5916 5916 5917 5918 5915 5915 5913 5909 5908 5906 5903 5900 5897 5894 5893 5890 5884 5881 5878 5873 5868 5863 5857 5851 5850 5848
5903 5905 5908 5912 5913 5916 5917 5916 5914 5909 5910 5913 5911 5910 5908 5911 5910 5913 5913 5913 5913 5916 5914 5911 5909 5906 5905 5904 5901 5898 5896 5892 5889 5886 5882 5879 5875 5870 5865 5862 5859 5854 5851 5850
5902 5903 5905 5908 5912 5913 5915 5910 5910 5910 5907 5908 5908 5909 5909 5909 5908 5910 5911 5910 5911 5909 5908 5906 5905 5902 5901 5899 5897 5894 5892 5890 5886 5883 5880 5876 5873 5869 5865 5861 5858 5855 5850 5848
5899 5901 5902 5904 5907 5908 5909 5911 5904 5907 5904 5906 5905 5905 5905 5907 5906 5907 5906 5903 5901 5902 5902 5901 5899 5897 5896 5895 5893 5891 5888 5885 5882 5879 5877 5875 5872 5868 5864 5861 5857 5854 5852 5848
5896 5897 5898 5899 5901 5903 5902 5902 5906 5905 5899 5900 5901 5901 5900 5900 5901 5902 5898 5895 5896 5895 5896 5896 5893 5890 5890 5890 5888 5887 5884 5881 5878 5874 5871 5870 5869 5866 5863 5860 5857 5854 5852 5849
5891 5891 5892 5893 5895 5897 5898 5901 5904 5902 5897 5897 5897 5898 5898 5898 5899 5896 5894 5894 5892 5891 5888 5888 5887 5884 5883 5882 5881 5880 5879 5876 5872 5869 5866 5864 5863 5862 5860 5858 5855 5852 5850 5848
5885 5885 5886 5888 5889 5891 5893 5896 5899 5899 5894 5891 5892 5896 5895 5895 5894 5893 5892 5891 5889 5879 5854 5857 5872 5878 5878 5877 5876 5874 5873 5870 5867 5864 5861 5859 5857 5856 5855 5853 5851 5848 5844 5842
5879 5880 5881 5882 5884 5886 5889 5890 5892 5892 5892 5888 5887 5889 5889 5889 5887 5888 5889 5888 5886 5884 5875 5830 5870 5876 5875 5872 5872 5871 5869 5868 5866 5862 5859 5854 5851 5849 5848 5847 5845 5843 5840 5837
5874 5876 5877 5879 5879 5881 5882 5883 5884 5886 5887 5888 5884 5886 5885 5884 5884 5884 5882 5880 5879 5877 5876 5875 5873 5872 5873 5869 5867 5867 5865 5862 5860 5857 5855 5852 5848 5843 5841 5840 5838 5837 5835 5832
5869 5869 5873 5873 5874 5875 5874 5875 5877 5878 5880 5877 5880 5883 5881 5880 5879 5880 5879 5879 5877 5875 5872 5869 5864 5867 5865 5862 5860 5858 5855 5852 5849 5850 5848 5845 5842 5837 5834 5832 5830 5828 5827 5825
5861 5866 5866 5866 5866 5867 5870 5872 5873 5873 5874 5869 5870 5874 5875 5873 5873 5872 5872 5872 5871 5869 5866 5863 5862 5859 5857 5853 5850 5846 5842 5841 5839 5838 5836 5832 5829 5826 5824 5821 5819 5818 5817 5817
5856 5856 5859 5860 5860 5861 5867 5864 5869 5868 5864 5863 5864 5866 5867 5866 5866 5866 5866 5865 5864 5861 5858 5855 5853 5852 5850 5846 5842 5839 5837 5834 5831 5828 5825 5820 5817 5814 5812 5810 5809 5807 5807 5806
5852 5851 5853 5857 5856 5854 5856 5858 5860 5859 5859 5860 5862 5861 5861 5861 5860 5859 5859 5857 5857 5854 5852 5850 5847 5843 5840 5839 5836 5831 5828 5824 5820 5817 5814 5810 5805 5802 5800 5799 5798 5797 5795 5795
5846 5847 5847 5845 5847 5851 5850 5851 5853 5853 5856 5856 5854 5854 5854 5854 5852 5852 5851 5849 5846 5845 5843 5839 5836 5835 5833 5830 5826 5822 5817 5812 5808 5804 5801 5798 5795 5791 5788 5786 5786 5785 5783 5782
5837 5838 5839 5841 5839 5842 5848 5849 5849 5849 5848 5847 5844 5843 5844 5843 5843 5843 5842 5839 5837 5834 5829 5825 5825 5821 5818 5815 5811 5807 5803 5799 5795 5791 5787 5784 5781 5779 5777 5775 5773 5772 5770 5768
5833 5834 5835 5834 5835 5838 5839 5838 5839 5840 5841 5839 5838 5836 5835 5836 5836 5835 5833 5829 5825 5820 5816 5815 5813 5810 5807 5804 5800 5796 5792 5787 5782 5779 5775 5773 5770 5769 5767 5765 5763 5760 5759 5757